Regional Weather Roundup
Issued by NWS

Home | Current Version | Previous Version | Graphics & Text | Print | Product List | Glossary On
Versions: 1 2 3 4 5 6 7 8 9 10 11 12 13 14 15 16 17 18 19 20 21 22 23 24 25 26 27 28 29 30 31 32 33 34 35 36 37 38 39 40 41 42 43 44 45 46 47 48
000
ASUS45 KCYS 270710
RWRWY

WYOMING REGIONAL WEATHER ROUNDUP
NATIONAL WEATHER SERVICE CHEYENNE WY
1200 AM MST TUE JAN 27 2015

NOTE:  "FAIR" INDICATES FEW OR NO CLOUDS BELOW 12,000 FEET
WITH NO SIGNIFICANT WEATHER AND/OR OBSTRUCTIONS TO VISIBILITY.

WYZ001-270800-
YELLOWSTONE NATIONAL PARK

CITY           SKY/WX    TMP DP  RH WIND       PRES   REMARKS
LK YELLOWSTONE   N/A     13   9  84 CALM      30.32S
W YELLOWSTONE  NOT AVBL

$$
WYZ002>013-054>058-071-098>099-270800-
NORTHERN WYOMING

CITY           SKY/WX    TMP DP  RH WIND       PRES   REMARKS
JACKSON        FAIR      10  10 100 N10       30.32S WCI  -3
CODY           FAIR      43  28  56 SW7       30.11S
GREYBULL       FAIR      22  22 100 SE5       30.14S WCI  16
WORLAND        FAIR      23  20  88 S8        30.14R WCI  14
SHERIDAN       FAIR      40  26  57 W3        29.99F
BUFFALO        FAIR      55  20  25 CALM      30.05S
GILLETTE       FAIR      49  27  42 SW15      30.01S
HULETT           N/A    N/A N/A N/A MISG        N/A
NEWCASTLE      FAIR      34  28  80 MISG      30.07S

$$
WYZ014>020-022>026-101>103-270800-
CENTRAL WYOMING

CITY           SKY/WX    TMP DP  RH WIND       PRES   REMARKS
BIG PINEY      FAIR      17  13  84 NE3       30.31S
PINEDALE       FAIR      14  12  92 NW5       30.32F WCI   6
DUBOIS         FAIR      34  21  60 W12       30.25S WCI  25
LANDER         FAIR      34  26  72 VRB3      30.20R
RIVERTON       FAIR      29  24  82 NW7       30.21S WCI  22
CASPER         FAIR      44  24  45 SW9       30.17S
DOUGLAS        FAIR      35  26  69 N6        30.13S WCI  30

$$
WYZ021-027>030-104>119-270800-
SOUTHERN WYOMING

CITY           SKY/WX    TMP DP  RH WIND       PRES   REMARKS
EVANSTON       FAIR      34  26  72 E6        30.28F WCI  29
KEMMERER       FAIR      30  23  74 NW9       30.31R WCI  22
FORT BRIDGER   FAIR      36  32  84 NW3       30.32S
ROCK SPRINGS   FAIR      32  24  72 VRB5      30.29R WCI  27
DIXON          FAIR      29  23  76 S7        30.35R WCI  22
RAWLINS        FAIR      27  23  85 CALM      30.31S
SARATOGA       FAIR      32  27  80 S3        30.31F
LARAMIE        FAIR      29  20  69 S8        30.29S WCI  21
CHEYENNE       FAIR      38  20  48 SW7       30.21S WCI  33
TORRINGTON     FAIR      33  26  75 E8        30.09F WCI  26
PINE BLUFFS    FAIR      32  25  74 SW9       30.17F WCI  24

$$



USA.gov is the U.S. government's official web portal to all federal, state and local government web resources and services.